Location: Bruderhein
(53.8035°N, 112.9265°W)
Time: 03:07:06
(UTC+00:00)

Gurwin Techsat 1B - Visible Passes

Search period start: 29 March 2023 00:00
Search period end: 08 April 2023 00:00
Orbit: 811 x 814 km, 98.9° (Epoch: 28 March)

Date Brightness Start Highest point End Pass type
(mag) Time Alt. Az. Time Alt. Az. Time Alt. Az.
29 Mar 9.8 09:56:06 10° NNE 10:01:02 37° E 10:03:27 25° SE visible
29 Mar 9.1 11:36:01 10° N 11:41:03 44° WNW 11:44:39 18° SW visible
30 Mar 10.4 09:33:22 10° NE 09:37:47 26° E 09:40:16 18° SE visible
30 Mar 8.7 11:12:51 10° NNE 11:18:07 64° WNW 11:21:28 23° SW visible
31 Mar 10.8 09:10:56 10° NE 09:14:27 18° E 09:17:05 13° ESE visible
31 Mar 8.6 10:49:45 10° NNE 10:55:07 90° E 10:58:17 26° SSW visible
31 Mar 10.1 12:30:31 10° N 12:34:25 21° NW 12:38:18 10° W visible
01 Apr 11.2 08:49:17 10° ENE 08:51:02 11° E 08:52:47 10° ESE visible
01 Apr 9.0 10:26:45 10° NNE 10:32:03 62° ESE 10:35:06 25° S visible
01 Apr 9.7 12:07:08 10° N 12:11:39 29° WNW 12:16:08 10° WSW visible
02 Apr 9.6 10:03:50 10° NNE 10:08:54 42° E 10:11:55 22° SSE visible
02 Apr 9.2 11:43:53 10° N 11:48:48 40° WNW 11:53:07 13° SW visible
03 Apr 10.2 09:41:04 10° NNE 09:45:40 29° E 09:48:43 17° SE visible
03 Apr 8.8 11:20:41 10° N 11:25:54 56° WNW 11:29:55 17° SW visible
04 Apr 10.7 09:18:31 10° NE 09:22:22 20° E 09:25:32 12° SE visible
04 Apr 8.6 10:57:34 10° NNE 11:02:56 81° WNW 11:06:44 20° SSW visible
05 Apr 11.1 08:56:27 10° NE 08:58:58 13° E 09:01:29 10° ESE visible
05 Apr 8.8 10:34:32 10° NNE 10:39:53 70° ESE 10:43:32 21° S visible
05 Apr 9.8 12:15:03 10° N 12:19:22 26° NW 12:23:41 10° WSW visible
06 Apr 9.4 10:11:35 10° NNE 10:16:45 48° E 10:20:20 19° SSE visible
06 Apr 9.4 11:51:45 10° N 11:56:34 36° WNW 12:01:21 10° SW visible
07 Apr 10.0 09:48:45 10° NNE 09:53:33 33° E 09:57:09 16° SSE visible
07 Apr 8.9 11:28:32 10° N 11:33:41 50° WNW 11:38:21 12° SW visible
